Fingard — OJNG — position and weather

sailwx.info

Track history (hours):
 
Tides and Currents Weather Stations Pressure Air Temp Water Temp Dewpoint Dewpoint Depression Visibility Wind Speed Wind Dir Waves Ship Positions

Fingard

Last reported at 2014-Jul-24 18:33 UTC. Time now 2014-Jul-24 19:21 UTC.
Position N 55°27' E 012°43'.

Length 95 m; draft 6 m.

Type: Ship. MMSI: 230999000.

Date/timePositionNaut miles runAvg speedWind from/ knotsBaromVisibWave heightAir tempDewpointWater temp
2014-Jul-24 18:33N 55°27' E 012°43'1010.1
2014-Jul-24 17:33N 55°17' E 012°48'1211.6
2014-Jul-24 16:33N 55°16' E 013°08'1211.7
2014-Jul-24 15:32N 55°15' E 013°29'1211.9
2014-Jul-24 14:33N 55°14' E 013°49'1211.9
2014-Jul-24 13:33N 55°14' E 014°10'1111.0
2014-Jul-24 12:33N 55°20' E 014°25'1211.7
2014-Jul-24 11:33N 55°28' E 014°41'1211.6
2014-Jul-24 10:33N 55°34' E 014°58'1211.7
2014-Jul-24 09:33N 55°40' E 015°16'1211.8
2014-Jul-24 08:33N 55°46' E 015°34'1211.9
2014-Jul-24 07:33N 55°52' E 015°52'1211.8
2014-Jul-24 06:33N 55°58' E 016°10'1211.9
2014-Jul-24 05:33N 56°04' E 016°29'1111.5
2014-Jul-24 04:33N 56°11' E 016°45'1211.7
2014-Jul-24 03:33N 56°22' E 016°53'1211.7
2014-Jul-24 02:33N 56°33' E 017°00'1211.5
2014-Jul-24 01:33N 56°44' E 017°08'1211.6
2014-Jul-24 00:33N 56°55' E 017°16'1111.4
2014-Jul-23 23:33N 57°05' E 017°23'1111.4
2014-Jul-23 22:33N 57°16' E 017°31'1111.3
2014-Jul-23 21:33N 57°27' E 017°38'1211.5
2014-Jul-23 20:33N 57°37' E 017°48'1211.5
2014-Jul-23 19:33N 57°47' E 017°58'1211.7
2014-Jul-23 18:33N 57°57' E 018°10'1211.5
2014-Jul-23 17:32N 58°07' E 018°21'1111.1
2014-Jul-23 16:33N 58°16' E 018°31'115 9.6
2014-Jul-23 04:32N 60°11' E 019°01'  
2014-Jul-15 13:31N 59°50' E 022°52'9 9.6
2014-Jul-15 12:33N 59°43' E 023°06'1111.2
2014-Jul-15 11:33N 59°42' E 023°28'1211.7
2014-Jul-15 10:33N 59°46' E 023°50'1311.3
2014-Jul-15 09:25N 59°53' E 024°11'11 9.3
2014-Jul-15 08:14N 60°01' E 023°55'  
Track history (hours):
 
Tides and Currents Weather Stations Pressure Air Temp Water Temp Dewpoint Dewpoint Depression Visibility Wind Speed Wind Dir Waves Ship Positions

Fingard

Last reported at 2014-Jul-24 18:33 UTC. Time now 2014-Jul-24 19:21 UTC.
Position N 55°27' E 012°43'.

Length 95 m; draft 6 m.

Type: Ship. MMSI: 230999000.

Date/timePositionNaut miles runAvg speedWind from/ knotsBaromVisibWave heightAir tempDewpointWater temp
2014-Jul-24 18:33N 55°27' E 012°43'1010.1
2014-Jul-24 17:33N 55°17' E 012°48'1211.6
2014-Jul-24 16:33N 55°16' E 013°08'1211.7
2014-Jul-24 15:32N 55°15' E 013°29'1211.9
2014-Jul-24 14:33N 55°14' E 013°49'1211.9
2014-Jul-24 13:33N 55°14' E 014°10'1111.0
2014-Jul-24 12:33N 55°20' E 014°25'1211.7
2014-Jul-24 11:33N 55°28' E 014°41'1211.6
2014-Jul-24 10:33N 55°34' E 014°58'1211.7
2014-Jul-24 09:33N 55°40' E 015°16'1211.8
2014-Jul-24 08:33N 55°46' E 015°34'1211.9
2014-Jul-24 07:33N 55°52' E 015°52'1211.8
2014-Jul-24 06:33N 55°58' E 016°10'1211.9
2014-Jul-24 05:33N 56°04' E 016°29'1111.5
2014-Jul-24 04:33N 56°11' E 016°45'1211.7
2014-Jul-24 03:33N 56°22' E 016°53'1211.7
2014-Jul-24 02:33N 56°33' E 017°00'1211.5
2014-Jul-24 01:33N 56°44' E 017°08'1211.6
2014-Jul-24 00:33N 56°55' E 017°16'1111.4
2014-Jul-23 23:33N 57°05' E 017°23'1111.4
2014-Jul-23 22:33N 57°16' E 017°31'1111.3
2014-Jul-23 21:33N 57°27' E 017°38'1211.5
2014-Jul-23 20:33N 57°37' E 017°48'1211.5
2014-Jul-23 19:33N 57°47' E 017°58'1211.7
2014-Jul-23 18:33N 57°57' E 018°10'1211.5
2014-Jul-23 17:32N 58°07' E 018°21'1111.1
2014-Jul-23 16:33N 58°16' E 018°31'115 9.6
2014-Jul-23 04:32N 60°11' E 019°01'  
2014-Jul-15 13:31N 59°50' E 022°52'9 9.6
2014-Jul-15 12:33N 59°43' E 023°06'1111.2
2014-Jul-15 11:33N 59°42' E 023°28'1211.7
2014-Jul-15 10:33N 59°46' E 023°50'1311.3
2014-Jul-15 09:25N 59°53' E 024°11'11 9.3
2014-Jul-15 08:14N 60°01' E 023°55'  

Dump ship's entire track history